Terminal Aerodrome Forecast
Issued by NWS

Home | Current Version | Previous Version | Text Only | Print | Product List | Glossary On
Versions: 1 2 3 4 5 6 7 8 9 10 11 12 13 14 15 16 17 18 19 20 21 22 23 24 25 26 27 28 29 30 31 32 33 34 35 36 37 38 39 40 41 42 43 44 45 46 47 48 49 50
000
FTUS41 KCTP 080601 RRA
TAFJST
TAF
KJST 080601Z 0806/0906 22008KT 6SM -SHRA OVC015
     FM080900 25008KT 5SM -SHRA BR OVC008
     FM081200 28005KT 4SM BR OVC005
     FM081800 31005KT P6SM OVC015
     FM090000 26005KT P6SM OVC010=

USA.gov is the U.S. government's official web portal to all federal, state and local government web resources and services.